Location: C�mpuri de-Sus
(45.9500°N, 22.5500°E)
Time: 06:02:28
(UTC+00:00)

Cosmos 1892 Rocket - Pass Details

Date: 24 October 2021
Orbit: 605 x 634 km, 82.5° (Epoch: 04 December)

Event Time Altitude Azimuth Distance (km) Brightness Sun altitude
Rises 16:19:19 0° 348° (NNW) 2,930 7.1 -9.5°
Reaches altitude 10° 16:21:35 10° 345° (NNW) 2,014 6.3 -9.9°
Maximum altitude 16:25:59 63° 265° (W) 700 4.1 -10.7°
Drops below altitude 10° 16:30:19 10° 184° (S) 1,980 6.3 -11.4°
Sets 16:32:32 0° 181° (S) 2,876 7.1 -11.8°
